TimeEST,TemperatureF,Dew PointF,Humidity,Sea Level PressureIn,VisibilityMPH,Wind Direction,Wind SpeedMPH,Gust SpeedMPH,PrecipitationIn,Events,Conditions,WindDirDegrees,DateUTC
12:26 AM,28.4,24.8,86,29.84,7.0,Calm,Calm,-,N/A,,Overcast,0,2013-02-05 05:26:00
12:53 AM,28.9,25.0,85,29.89,7.0,Calm,Calm,-,N/A,,Overcast,0,2013-02-05 05:53:00
1:53 AM,30.0,25.0,82,29.87,7.0,Calm,Calm,-,N/A,,Overcast,0,2013-02-05 06:53:00
2:53 AM,28.9,25.0,85,29.87,7.0,Calm,Calm,-,N/A,,Overcast,0,2013-02-05 07:53:00
3:53 AM,30.0,25.0,82,29.87,8.0,Calm,Calm,-,N/A,,Overcast,0,2013-02-05 08:53:00
4:53 AM,30.0,25.0,82,29.88,7.0,Calm,Calm,-,N/A,,Overcast,0,2013-02-05 09:53:00
5:53 AM,30.0,25.0,82,29.89,7.0,Calm,Calm,-,N/A,,Overcast,0,2013-02-05 10:53:00
6:53 AM,30.0,25.0,82,29.91,8.0,Calm,Calm,-,N/A,,Overcast,0,2013-02-05 11:53:00
7:01 AM,30.2,24.8,80,29.86,7.0,Calm,Calm,-,N/A,,Overcast,0,2013-02-05 12:01:00
7:53 AM,30.0,25.0,82,29.92,5.0,Calm,Calm,-,N/A,,Haze,0,2013-02-05 12:53:00
8:53 AM,30.9,26.1,82,29.94,6.0,Calm,Calm,-,N/A,,Haze,0,2013-02-05 13:53:00
11:53 AM,35.1,28.0,76,29.91,8.0,Calm,Calm,-,N/A,,Overcast,0,2013-02-05 16:53:00
12:53 PM,35.1,28.0,76,29.88,8.0,NNE,5.8,-,N/A,,Overcast,20,2013-02-05 17:53:00
2:53 PM,34.0,28.0,79,29.87,2.5,Calm,Calm,-,0.01,Snow,Light Snow,0,2013-02-05 19:53:00
3:01 PM,33.8,28.4,81,29.82,1.0,Calm,Calm,-,0.00,Snow,Light Snow,0,2013-02-05 20:01:00
3:21 PM,33.8,28.4,81,29.82,2.0,NE,3.5,-,0.00,Snow,Light Snow,50,2013-02-05 20:21:00
3:32 PM,33.8,28.4,81,29.82,1.8,Calm,Calm,-,0.00,Snow,Light Snow,0,2013-02-05 20:32:00
3:40 PM,33.8,28.4,81,29.82,0.8,Calm,Calm,-,0.00,Snow,Light Snow,0,2013-02-05 20:40:00
3:53 PM,33.1,30.0,89,29.87,0.5,Calm,Calm,-,0.02,Fog-Snow,Light Snow,0,2013-02-05 20:53:00
4:53 PM,33.1,30.0,89,29.87,2.0,Calm,Calm,-,0.00,,Overcast,0,2013-02-05 21:53:00
5:53 PM,33.1,28.9,85,29.87,3.0,Calm,Calm,-,N/A,,Overcast,0,2013-02-05 22:53:00
6:22 PM,32.0,28.4,87,29.83,2.5,Calm,Calm,-,N/A,,Scattered Clouds,0,2013-02-05 23:22:00
6:43 PM,32.0,28.4,87,29.84,3.0,Calm,Calm,-,N/A,,Partly Cloudy,0,2013-02-05 23:43:00
6:53 PM,30.9,28.0,89,29.89,4.0,Calm,Calm,-,N/A,,Scattered Clouds,0,2013-02-05 23:53:00
7:53 PM,30.9,27.0,85,29.89,3.0,Calm,Calm,-,N/A,,Overcast,0,2013-02-06 00:53:00
9:53 PM,36.0,28.9,76,29.92,6.0,Calm,Calm,-,N/A,,Haze,0,2013-02-06 02:53:00
10:53 PM,34.0,28.0,79,29.93,7.0,Calm,Calm,-,N/A,,Partly Cloudy,0,2013-02-06 03:53:00
11:53 PM,34.0,27.0,75,29.93,6.0,Variable,4.6,-,N/A,,Haze,0,2013-02-06 04:53:00